User: anonymous   Login
Location: Mentone
(34.5413°N, 85.5351°W)
Time: 12:36:12
(UTC-05:00)
Language:

AO-Echo - Orbit

View from above orbital plane
View from above orbital plane
View from above satellite
View from above satellite

Ground track
Ground track

The orbit data is extracted from the following two-line orbital elements,

1 28375U 04025K   15141.38158693  .00000287  00000-0  97477-4 0  9996
2 28375 098.2909 082.5979 0083841 051.1252 309.7379 14.41655993572632
Epoch (UTC): 21 May 2015 09:09:29
Eccentricity: 0.0083841
inclination: 98.2909°
perigee height: 693 km
apogee height: 813 km
right ascension of ascending node: 82.5979°
argument of perigee: 51.1252°
revolutions per day: 14.41655993
mean anomaly at epoch: 309.7379°
orbit number at epoch: 57263

The dashed part of the orbit path shows where the satellite is in the earth's shadow,  

DLR